Zurück zum Katalog

IUS R/B(2)

AktivHEO
NORAD 25869·ROCKET BODY·🇺🇸 United States

Gestartet Jul 23, 1999 von Cape Canaveral Space Force Station

Loading…

Nächste Überflüge (nächste 24 Stunden)

TLE

AktuellSource: Space-Track

Epoche: Sep 14, 2026, 00:41 UTC

1 25869U 99040D   26257.02886352 -.00000031  00000-0  00000-0 0  9993
2 25869  27.2436 155.9477 8332474  75.3337 354.6434  0.97240926 96411

Verfolge IUS R/B(2) in Echtzeit mit AllMySat

Download on the App Store